Terminal Aerodrome Forecast
Issued by NWS Newport/Morehead City, NC

Home | Current Version | Previous Version | Text Only | Print | Product List | Glossary Off
Versions: 1 2 3 4 5 6 7 8 9 10 11 12 13 14 15 16 17 18 19 20 21 22

000
FTUS42 KMHX 011011 AAC
TAFEWN
TAF AMD
KEWN 011011Z 0110/0206 00000KT 2SM BR SCT250
     FM011300 VRB02KT P6SM SCT250
     FM011800 20005KT P6SM SCT050
     FM020000 VRB02KT P6SM SCT250=

USA.gov is the U.S. government's official web portal to all federal, state and local government web resources and services.